SCP
0 -0 -0 0 0 0 0 0 0 0 -0 0 0 0 0 0 0 0 0 0 0 0 -0 -0 0 0 0 0 0 0 0 0 0 0 0 -0 -0 -0 0 -0 -0 -0 -0
0 -0 -0 0 0 0 0 0 0 0 0 0 0 0 0 0 0 0 0 0 0 0 0 0 -0 0 0 0 0 0 0 0 0 0 0 0 0 0 -0 -0 -0 0 0
-0 0 0 0 0 0 0 0 0 0 0 0 0 0 0 0 0 0 0 0 0 0 0 0 0 0 -0 0 0 0 0 0 0 0 0 0 0 0 0 0 0 0 0
-0 -0 0 -0 0 0 0 0 0 0 0 0 0 0 0 0 0 0 0 0 0 0 0 0 0 0 0 0 0 0 0 0 0 0 0 0 0 0 0 0 0 0 0
0 -0 -0 0 0 0 0 0 0 0 0 0 0 0 0 0 0 0 0 0 0 0 0 0 0 0 0 0 0 0 0 0 0 0 0 0 0 0 0 0 0 0 0
0 0 0 0 0 0 -0 0 0 0 0 0 0 0 0 1 0 0 0 0 0 0 0 0 0 0 0 0 0 0 0 0 0 0 0 0 0 0 0 0 0 0 0
0 0 0 0 0 0 0 0 0 0 0 0 0 0 1 1 0 0 0 0 0 0 0 0 0 0 0 0 0 0 0 0 0 0 0 0 0 0 0 0 0 0 0
0 0 -0 -0 0 0 0 0 0 0 0 0 0 0 1 1 0 0 0 0 0 0 0 0 0 0 0 0 0 0 0 0 0 0 0 0 0 0 0 0 0 0 0
1 1 0 0 1 0 0 0 0 0 0 0 0 0 0 0 0 0 0 0 0 0 0 0 0 0 0 0 0 0 0 0 0 0 0 0 0 0 0 0 0 0 0
1 0 -0 0 0 1 1 0 1 1 1 1 0 0 0 0 0 0 0 0 0 0 0 0 0 0 0 0 0 0 0 0 0 0 0 0 0 0 0 0 0 0 0
0 0 0 0 0 0 0 0 1 1 1 1 1 1 0 0 0 0 0 0 0 0 0 0 0 0 0 0 0 0 0 0 0 0 0 0 0 0 0 0 0 0 0
0 0 -0 0 0 1 0 0 -0 0 0 1 1 1 1 1 0 0 0 0 0 0 0 0 0 0 0 0 0 0 0 0 0 0 0 0 0 0 0 0 0 0 0
-0 -0 -0 -0 -0 0 -0 0 -0 -0 0 -0 0 0 0 0 0 0 0 0 0 0 0 0 0 0 0 0 0 0 0 0 0 0 0 0 0 0 0 0 0 0 0
-0 -0 -0 -0 -0 0 -0 0 0 0 0 -0 0 0 0 0 0 0 0 0 0 0 0 0 0 0 0 0 0 0 0 0 0 0 0 0 0 0 0 0 0 0 0
0 0 0 -0 -0 -0 0 0 0 0 0 0 0 0 0 -0 0 0 0 0 0 0 0 0 0 0 0 0 0 0 0 0 0 0 0 0 0 0 0 0 0 0 0
0 0 0 0 0 0 0 0 0 0 0 -0 0 0 -0 0 0 0 -0 0 0 0 0 0 0 0 0 0 0 0 0 0 -0 -0 0 0 0 0 0 0 0 0 0
0 0 0 0 0 0 0 0 0 0 0 0 -0 -0 -0 -0 0 0 0 -0 0 0 0 0 0 0 0 0 0 0 0 0 0 0 0 -0 0 0 0 0 0 0 0
0 0 0 0 0 0 0 0 0 0 0 0 0 0 0 0 0 0 -0 0 0 0 0 0 0 0 0 0 0 0 0 0 0 0 0 0 0 0 0 0 0 0 -0
0 0 0 0 0 0 0 0 0 0 0 0 0 0 0 0 0 -0 -0 -0 0 0 0 0 0 0 0 0 0 0 0 0 0 0 0 0 0 0 0 0 0 0 -0
0 0 0 0 0 0 0 0 0 0 0 0 0 0 0 0 0 0 0 0 0 0 0 0 0 0 0 0 0 0 0 0 0 0 0 0 0 0 0 0 0 0 0
0 0 0 0 0 0 0 0 0 0 0 0 0 0 0 0 0 0 0 0 0 0 0 0 0 0 0 0 0 0 0 0 0 0 0 0 0 0 0 0 0 0 0
0 0 0 0 0 0 0 0 0 0 0 0 0 0 0 0 0 0 0 0 0 0 0 0 0 0 0 0 0 0 0 0 0 0 0 0 0 0 0 0 0 0 0
0 0 0 0 0 0 0 0 0 0 0 0 0 0 0 0 0 0 0 0 0 0 0 0 0 0 0 0 0 0 0 0 0 0 0 0 0 0 0 0 0 0 0
0 0 0 0 0 0 0 0 0 0 0 0 0 0 0 0 0 0 0 0 0 0 0 0 0 0 0 0 0 0 0 0 0 0 0 0 0 0 0 0 0 0 0
0 0 0 0 0 0 0 0 0 0 0 0 0 0 0 0 0 0 0 0 0 0 0 0 0 0 0 0 0 0 0 0 0 0 0 0 0 0 0 0 0 0 0
0 0 0 0 0 0 0 0 0 0 0 0 0 0 0 0 0 0 0 0 0 0 0 0 0 0 0 0 0 0 0 0 0 0 0 0 0 0 0 0 0 0 0
Wind_Speed_500mb
50 38 37 45 36 32 34 34 40 34 37 42 43 38 34 35 38 38 28 21 24 22 24 20 20 16 11 8 7 10 15 18 23 19 17 15 14 9 10 26 29 35 31
31 35 36 35 34 35 36 33 34 41 45 42 42 41 36 31 41 38 24 24 27 24 20 21 19 13 6 11 14 16 17 17 20 16 12 14 19 19 19 22 26 33 39
29 36 33 31 31 30 33 30 37 41 46 43 43 45 45 41 38 33 23 27 27 24 21 22 17 16 14 14 19 21 19 18 21 25 23 23 22 24 26 26 26 29 35
35 35 35 33 33 31 28 27 30 43 51 41 44 47 46 45 40 30 24 28 26 25 22 22 20 17 17 21 25 22 24 24 22 25 26 27 26 24 31 33 32 31 31
37 35 34 33 34 34 32 31 34 40 44 49 43 48 48 46 41 30 31 31 29 24 20 19 20 21 22 27 30 28 27 30 31 32 33 35 35 33 36 40 45 37 38
30 39 40 42 37 36 34 38 42 44 41 43 53 50 44 46 42 39 35 33 28 23 18 18 17 19 24 28 30 28 30 34 37 38 41 46 46 44 42 43 45 43 47
35 33 40 51 51 46 44 46 47 47 42 39 46 52 50 46 44 41 37 34 32 29 27 27 30 31 32 31 33 33 30 34 37 41 46 48 50 46 49 52 53 52 55
24 28 33 40 51 51 49 51 53 51 53 53 47 47 40 40 38 34 34 38 34 31 29 31 34 31 33 33 28 31 34 35 36 41 46 48 51 53 58 62 64 64 63
21 29 34 37 43 46 55 58 56 56 57 56 56 51 49 47 38 36 37 42 41 36 34 33 31 33 30 28 32 37 38 39 44 42 38 38 38 40 44 53 61 64 72
21 31 41 34 40 47 51 55 55 55 54 49 50 52 52 49 44 44 41 41 41 37 33 35 32 33 33 33 38 41 44 42 41 40 35 30 28 30 33 39 43 46 52
34 37 36 36 40 37 48 52 56 60 57 48 46 43 44 46 44 42 43 42 37 35 37 36 34 33 34 38 40 42 41 42 39 39 36 25 24 23 27 31 28 24 35
50 52 50 46 40 39 43 46 52 40 45 30 36 32 33 37 42 42 42 40 37 40 39 38 37 36 36 39 39 38 38 41 42 37 28 22 24 23 24 21 24 29 30
62 58 56 51 50 46 45 49 45 41 3 58 36 50 32 35 43 41 38 40 39 41 44 43 40 37 36 33 32 33 34 35 36 28 17 17 19 20 22 22 15 19 26
62 63 62 64 60 46 42 40 33 29 22 23 24 54 76 37 35 35 34 34 36 40 42 44 37 32 29 26 25 25 26 27 27 17 12 15 18 14 16 18 16 13 2
59 59 60 54 52 42 32 30 23 21 17 22 46 58 51 48 42 43 46 39 38 31 30 31 34 31 25 18 19 19 20 22 22 11 9 14 14 10 14 15 11 13 7
63 65 64 58 48 41 36 30 24 23 20 19 41 27 31 56 64 55 48 41 37 33 34 33 35 29 21 13 15 14 10 11 16 16 13 17 15 17 17 20 16 6 5
73 66 64 58 49 45 41 38 32 29 30 28 36 43 47 73 72 55 53 39 32 41 46 39 35 30 22 12 10 4 7 17 24 33 28 17 26 30 33 34 30 18 10
57 55 60 61 57 51 45 39 41 36 39 35 35 49 44 68 81 71 50 45 41 55 53 39 35 27 25 18 9 11 15 18 22 24 26 30 27 28 35 40 44 47 39
57 59 59 55 51 48 42 40 42 39 45 46 38 34 46 57 75 77 62 57 61 60 53 42 33 27 31 23 14 20 16 14 10 9 10 14 16 19 22 25 27 31 34
56 58 56 54 53 50 50 50 43 41 42 46 40 30 28 39 58 75 90 70 55 64 69 50 34 36 37 29 21 19 22 16 12 8 3 3 5 6 14 16 15 16 17
50 51 42 44 47 48 48 47 47 47 44 49 44 34 30 31 34 43 61 79 85 66 51 43 38 40 38 34 29 26 25 21 20 11 7 1 4 5 3 9 5 7 10
43 47 47 44 40 39 34 39 39 46 47 52 48 34 32 29 27 28 39 47 47 44 42 40 41 43 37 37 27 32 21 23 25 19 15 16 9 7 11 17 19 16 13
46 44 43 42 40 37 43 46 37 35 44 47 47 37 39 38 30 27 24 32 39 42 42 44 38 40 35 29 30 31 23 23 20 15 18 16 20 23 26 29 32 32 30
43 43 44 42 41 50 51 47 40 35 40 58 53 42 45 40 35 33 29 33 41 40 44 47 44 43 43 37 40 36 28 33 28 27 28 28 33 39 40 40 37 35 33
37 38 39 38 37 37 35 35 39 40 43 48 53 49 50 48 38 39 29 31 40 39 48 53 44 52 48 43 36 36 35 35 38 35 36 34 37 37 30 25 22 23 22
29 31 32 34 36 27 37 35 40 39 38 45 48 49 42 45 41 36 35 38 43 42 41 43 44 52 50 47 47 47 43 40 36 30 31 31 26 20 18 16 11 4 3
Wind_Direction_500mb
231 228 230 231 228 230 234 232 224 219 225 229 222 225 230 244 239 235 237 245 249 238 252 251 243 239 259 262 285 284 256 268 269 276 278 274 233 182 227 251 254 262 256
221 226 225 225 228 231 234 227 223 219 226 224 225 227 238 235 239 241 237 247 250 247 230 249 249 229 253 273 280 304 277 268 286 285 289 292 288 276 277 265 265 266 270
229 236 232 221 230 232 234 234 226 218 224 230 230 231 236 232 228 228 243 248 249 254 246 259 254 274 266 276 300 298 296 293 290 289 288 284 291 288 287 281 278 271 270
226 242 231 228 234 237 232 227 232 226 226 232 236 234 232 234 233 241 252 253 244 248 259 265 268 281 293 291 287 288 288 291 295 294 288 289 286 288 285 287 283 280 275
229 230 239 248 242 237 233 235 231 228 230 234 240 238 240 240 240 246 250 252 250 252 262 267 265 272 279 281 285 293 294 292 291 289 292 290 286 284 277 278 276 279 279
243 245 240 246 242 241 241 238 240 238 238 238 240 241 240 238 243 249 250 246 241 237 247 258 271 273 281 279 283 284 290 294 293 288 287 288 290 288 282 274 270 271 273
245 246 244 250 248 247 249 248 250 246 237 238 241 238 241 242 241 238 237 238 230 240 251 263 282 287 280 282 283 287 294 299 293 289 287 284 283 283 281 278 276 273 269
260 260 243 242 246 247 245 247 249 248 246 245 246 238 241 237 240 238 235 228 235 238 248 265 278 275 277 287 291 296 301 299 295 291 288 285 283 281 276 276 274 272 271
257 270 266 257 252 251 251 252 253 250 248 248 251 246 241 246 244 229 228 229 235 243 255 261 259 270 279 283 296 300 301 300 300 299 298 296 290 287 287 283 275 267 265
327 286 301 297 274 261 253 255 254 251 247 250 251 250 247 247 240 229 225 225 233 239 249 252 258 268 275 285 295 300 303 303 302 300 295 287 287 287 286 293 288 275 254
325 320 321 324 310 300 278 265 258 249 241 241 249 253 249 241 235 230 227 226 234 241 246 253 263 268 275 284 291 297 301 304 305 305 306 288 288 304 305 290 276 264 253
317 314 312 313 317 325 315 312 297 285 245 259 250 262 263 248 240 233 231 235 240 246 251 259 263 268 273 282 291 299 304 308 312 308 306 298 308 306 322 315 274 253 252
317 318 319 313 307 314 324 335 326 332 52 292 359 2 327 255 246 237 229 241 244 250 257 261 259 261 271 283 295 302 310 315 313 311 306 310 313 318 327 334 314 281 269
309 312 315 314 313 308 314 332 332 330 277 185 211 271 289 275 234 243 245 242 252 258 263 254 246 253 266 279 295 312 315 325 328 328 328 330 330 330 329 326 339 328 307
303 305 309 312 314 316 298 328 320 317 272 244 207 203 191 216 228 228 234 233 249 261 260 243 242 246 255 273 314 316 322 341 348 353 350 355 359 9 5 359 340 7 4
297 295 299 303 309 307 306 295 289 300 282 251 223 247 233 212 207 214 224 225 229 245 243 242 237 237 244 274 313 300 322 5 27 35 39 30 26 28 16 5 357 351 8
294 289 286 288 292 296 296 283 276 266 273 238 235 251 243 221 210 211 220 225 249 252 237 232 225 228 232 244 287 259 100 82 79 76 67 55 59 60 62 50 46 36 359
287 286 280 283 286 286 281 282 267 261 263 269 248 235 230 216 213 210 223 234 243 241 229 225 224 224 224 230 252 182 137 103 91 87 81 74 72 60 60 58 55 52 49
282 281 285 286 287 284 271 274 269 268 264 265 255 243 242 233 233 228 229 239 238 246 237 233 231 233 223 224 236 201 163 147 120 101 77 71 60 51 42 45 46 46 48
284 280 280 280 280 275 282 259 271 271 256 247 234 262 254 249 243 237 228 234 249 251 250 240 231 222 218 218 230 231 201 180 176 171 141 93 71 26 32 9 6 13 20
281 278 282 285 273 278 277 252 265 271 267 235 237 257 267 266 272 253 242 244 250 247 232 226 226 211 214 221 229 215 202 208 216 196 204 307 154 82 344 354 354 21 347
285 275 274 280 272 276 271 259 274 262 268 234 232 242 243 249 263 253 241 239 233 222 214 221 213 215 220 215 222 197 220 223 209 206 226 245 242 260 289 302 307 310 305
275 277 275 271 263 267 268 264 273 282 251 232 232 245 241 241 245 252 245 227 216 208 212 210 209 201 208 204 198 208 221 213 219 231 229 238 258 275 283 288 291 293 296
271 266 270 268 261 262 266 268 274 273 251 240 238 242 244 239 237 250 244 231 219 218 210 201 203 208 203 205 210 216 220 224 233 248 258 260 271 283 285 287 286 287 291
269 269 261 259 266 263 253 250 264 268 255 239 231 238 245 236 236 236 233 219 211 210 206 200 210 205 212 211 213 218 219 223 236 252 267 275 286 290 289 287 289 291 295
268 263 254 250 250 279 254 248 256 247 249 228 232 229 220 228 231 223 216 209 201 197 197 209 212 206 213 210 218 224 233 237 253 261 274 283 286 284 280 281 289 294 82
Wind_Speed_850mb
50 38 37 45 36 32 34 34 40 34 37 42 43 38 34 35 38 38 28 21 24 22 24 20 20 16 11 8 7 10 15 18 23 19 17 15 14 9 10 26 29 35 31
31 35 36 35 34 35 36 33 34 41 45 42 42 41 36 31 41 38 24 24 27 24 20 21 19 13 6 11 14 16 17 17 20 16 12 14 19 19 19 22 26 33 39
29 36 33 31 31 30 33 30 37 41 46 43 43 45 45 41 38 33 23 27 27 24 21 22 17 16 14 14 19 21 19 18 21 25 23 23 22 24 26 26 26 29 35
35 35 35 33 33 31 28 27 30 43 51 41 44 47 46 45 40 30 24 28 26 25 22 22 20 17 17 21 25 22 24 24 22 25 26 27 26 24 31 33 32 31 31
37 35 34 33 34 34 32 31 34 40 44 49 43 48 48 46 41 30 31 31 29 24 20 19 20 21 22 27 30 28 27 30 31 32 33 35 35 33 36 40 45 37 38
30 39 40 42 37 36 34 38 42 44 41 43 53 50 44 46 42 39 35 33 28 23 18 18 17 19 24 28 30 28 30 34 37 38 41 46 46 44 42 43 45 43 47
35 33 40 51 51 46 44 46 47 47 42 39 46 52 50 46 44 41 37 34 32 29 27 27 30 31 32 31 33 33 30 34 37 41 46 48 50 46 49 52 53 52 55
24 28 33 40 51 51 49 51 53 51 53 53 47 47 40 40 38 34 34 38 34 31 29 31 34 31 33 33 28 31 34 35 36 41 46 48 51 53 58 62 64 64 63
21 29 34 37 43 46 55 58 56 56 57 56 56 51 49 47 38 36 37 42 41 36 34 33 31 33 30 28 32 37 38 39 44 42 38 38 38 40 44 53 61 64 72
21 31 41 34 40 47 51 55 55 55 54 49 50 52 52 49 44 44 41 41 41 37 33 35 32 33 33 33 38 41 44 42 41 40 35 30 28 30 33 39 43 46 52
34 37 36 36 40 37 48 52 56 60 57 48 46 43 44 46 44 42 43 42 37 35 37 36 34 33 34 38 40 42 41 42 39 39 36 25 24 23 27 31 28 24 35
50 52 50 46 40 39 43 46 52 40 45 30 36 32 33 37 42 42 42 40 37 40 39 38 37 36 36 39 39 38 38 41 42 37 28 22 24 23 24 21 24 29 30
62 58 56 51 50 46 45 49 45 41 3 58 36 50 32 35 43 41 38 40 39 41 44 43 40 37 36 33 32 33 34 35 36 28 17 17 19 20 22 22 15 19 26
62 63 62 64 60 46 42 40 33 29 22 23 24 54 76 37 35 35 34 34 36 40 42 44 37 32 29 26 25 25 26 27 27 17 12 15 18 14 16 18 16 13 2
59 59 60 54 52 42 32 30 23 21 17 22 46 58 51 48 42 43 46 39 38 31 30 31 34 31 25 18 19 19 20 22 22 11 9 14 14 10 14 15 11 13 7
63 65 64 58 48 41 36 30 24 23 20 19 41 27 31 56 64 55 48 41 37 33 34 33 35 29 21 13 15 14 10 11 16 16 13 17 15 17 17 20 16 6 5
73 66 64 58 49 45 41 38 32 29 30 28 36 43 47 73 72 55 53 39 32 41 46 39 35 30 22 12 10 4 7 17 24 33 28 17 26 30 33 34 30 18 10
57 55 60 61 57 51 45 39 41 36 39 35 35 49 44 68 81 71 50 45 41 55 53 39 35 27 25 18 9 11 15 18 22 24 26 30 27 28 35 40 44 47 39
57 59 59 55 51 48 42 40 42 39 45 46 38 34 46 57 75 77 62 57 61 60 53 42 33 27 31 23 14 20 16 14 10 9 10 14 16 19 22 25 27 31 34
56 58 56 54 53 50 50 50 43 41 42 46 40 30 28 39 58 75 90 70 55 64 69 50 34 36 37 29 21 19 22 16 12 8 3 3 5 6 14 16 15 16 17
50 51 42 44 47 48 48 47 47 47 44 49 44 34 30 31 34 43 61 79 85 66 51 43 38 40 38 34 29 26 25 21 20 11 7 1 4 5 3 9 5 7 10
43 47 47 44 40 39 34 39 39 46 47 52 48 34 32 29 27 28 39 47 47 44 42 40 41 43 37 37 27 32 21 23 25 19 15 16 9 7 11 17 19 16 13
46 44 43 42 40 37 43 46 37 35 44 47 47 37 39 38 30 27 24 32 39 42 42 44 38 40 35 29 30 31 23 23 20 15 18 16 20 23 26 29 32 32 30
43 43 44 42 41 50 51 47 40 35 40 58 53 42 45 40 35 33 29 33 41 40 44 47 44 43 43 37 40 36 28 33 28 27 28 28 33 39 40 40 37 35 33
37 38 39 38 37 37 35 35 39 40 43 48 53 49 50 48 38 39 29 31 40 39 48 53 44 52 48 43 36 36 35 35 38 35 36 34 37 37 30 25 22 23 22
29 31 32 34 36 27 37 35 40 39 38 45 48 49 42 45 41 36 35 38 43 42 41 43 44 52 50 47 47 47 43 40 36 30 31 31 26 20 18 16 11 4 3
Wind_Direction_850mb
231 228 230 231 228 230 234 232 224 219 225 229 222 225 230 244 239 235 237 245 249 238 252 251 243 239 259 262 285 284 256 268 269 276 278 274 233 182 227 251 254 262 256
221 226 225 225 228 231 234 227 223 219 226 224 225 227 238 235 239 241 237 247 250 247 230 249 249 229 253 273 280 304 277 268 286 285 289 292 288 276 277 265 265 266 270
229 236 232 221 230 232 234 234 226 218 224 230 230 231 236 232 228 228 243 248 249 254 246 259 254 274 266 276 300 298 296 293 290 289 288 284 291 288 287 281 278 271 270
226 242 231 228 234 237 232 227 232 226 226 232 236 234 232 234 233 241 252 253 244 248 259 265 268 281 293 291 287 288 288 291 295 294 288 289 286 288 285 287 283 280 275
229 230 239 248 242 237 233 235 231 228 230 234 240 238 240 240 240 246 250 252 250 252 262 267 265 272 279 281 285 293 294 292 291 289 292 290 286 284 277 278 276 279 279
243 245 240 246 242 241 241 238 240 238 238 238 240 241 240 238 243 249 250 246 241 237 247 258 271 273 281 279 283 284 290 294 293 288 287 288 290 288 282 274 270 271 273
245 246 244 250 248 247 249 248 250 246 237 238 241 238 241 242 241 238 237 238 230 240 251 263 282 287 280 282 283 287 294 299 293 289 287 284 283 283 281 278 276 273 269
260 260 243 242 246 247 245 247 249 248 246 245 246 238 241 237 240 238 235 228 235 238 248 265 278 275 277 287 291 296 301 299 295 291 288 285 283 281 276 276 274 272 271
257 270 266 257 252 251 251 252 253 250 248 248 251 246 241 246 244 229 228 229 235 243 255 261 259 270 279 283 296 300 301 300 300 299 298 296 290 287 287 283 275 267 265
327 286 301 297 274 261 253 255 254 251 247 250 251 250 247 247 240 229 225 225 233 239 249 252 258 268 275 285 295 300 303 303 302 300 295 287 287 287 286 293 288 275 254
325 320 321 324 310 300 278 265 258 249 241 241 249 253 249 241 235 230 227 226 234 241 246 253 263 268 275 284 291 297 301 304 305 305 306 288 288 304 305 290 276 264 253
317 314 312 313 317 325 315 312 297 285 245 259 250 262 263 248 240 233 231 235 240 246 251 259 263 268 273 282 291 299 304 308 312 308 306 298 308 306 322 315 274 253 252
317 318 319 313 307 314 324 335 326 332 52 292 359 2 327 255 246 237 229 241 244 250 257 261 259 261 271 283 295 302 310 315 313 311 306 310 313 318 327 334 314 281 269
309 312 315 314 313 308 314 332 332 330 277 185 211 271 289 275 234 243 245 242 252 258 263 254 246 253 266 279 295 312 315 325 328 328 328 330 330 330 329 326 339 328 307
303 305 309 312 314 316 298 328 320 317 272 244 207 203 191 216 228 228 234 233 249 261 260 243 242 246 255 273 314 316 322 341 348 353 350 355 359 9 5 359 340 7 4
297 295 299 303 309 307 306 295 289 300 282 251 223 247 233 212 207 214 224 225 229 245 243 242 237 237 244 274 313 300 322 5 27 35 39 30 26 28 16 5 357 351 8
294 289 286 288 292 296 296 283 276 266 273 238 235 251 243 221 210 211 220 225 249 252 237 232 225 228 232 244 287 259 100 82 79 76 67 55 59 60 62 50 46 36 359
287 286 280 283 286 286 281 282 267 261 263 269 248 235 230 216 213 210 223 234 243 241 229 225 224 224 224 230 252 182 137 103 91 87 81 74 72 60 60 58 55 52 49
282 281 285 286 287 284 271 274 269 268 264 265 255 243 242 233 233 228 229 239 238 246 237 233 231 233 223 224 236 201 163 147 120 101 77 71 60 51 42 45 46 46 48
284 280 280 280 280 275 282 259 271 271 256 247 234 262 254 249 243 237 228 234 249 251 250 240 231 222 218 218 230 231 201 180 176 171 141 93 71 26 32 9 6 13 20
281 278 282 285 273 278 277 252 265 271 267 235 237 257 267 266 272 253 242 244 250 247 232 226 226 211 214 221 229 215 202 208 216 196 204 307 154 82 344 354 354 21 347
285 275 274 280 272 276 271 259 274 262 268 234 232 242 243 249 263 253 241 239 233 222 214 221 213 215 220 215 222 197 220 223 209 206 226 245 242 260 289 302 307 310 305
275 277 275 271 263 267 268 264 273 282 251 232 232 245 241 241 245 252 245 227 216 208 212 210 209 201 208 204 198 208 221 213 219 231 229 238 258 275 283 288 291 293 296
271 266 270 268 261 262 266 268 274 273 251 240 238 242 244 239 237 250 244 231 219 218 210 201 203 208 203 205 210 216 220 224 233 248 258 260 271 283 285 287 286 287 291
269 269 261 259 266 263 253 250 264 268 255 239 231 238 245 236 236 236 233 219 211 210 206 200 210 205 212 211 213 218 219 223 236 252 267 275 286 290 289 287 289 291 295
268 263 254 250 250 279 254 248 256 247 249 228 232 229 220 228 231 223 216 209 201 197 197 209 212 206 213 210 218 224 233 237 253 261 274 283 286 284 280 281 289 294 82